#timestamp,LO_Frequency,Hit,StdDev 
1457762415.7,286046994.3,Y
1457762435.5,286046999.0,P
1457762455.3,286046999.6,N
1457762475.2,286046996.1,N
1457762495.9,286046994.1,N
1457762515.7,286046994.9,N
1457762535.6,286046997.8,N
1457762555.4,286046999.1,N
1457762575.2,286047000.9,N
1457762595.0,286046999.1,N
1457762596.0,286046999.1,N
1457762615.8,286046997.7,N
1457762635.6,286046996.6,N
1457762655.4,286046996.9,N
1457762675.3,286046997.4,N
1457762695.1,286046996.1,N
1457762715.8,286046993.1,Y
1457762735.7,286046994.3,P
1457762755.5,286046992.2,P
1457762775.3,286046995.7,N
1457762795.2,286046998.3,N
1457762815.9,286046998.5,N
1457762835.7,286046998.8,N
1457762855.6,286046996.7,N
1457762875.4,286046997.8,N
1457762895.2,286046998.9,N
1457762915.1,286046994.2,N
1457762916.0,286046994.2,N
1457762935.8,286046992.9,Y
1457762955.6,286046996.0,P
1457762975.5,286046994.2,P
1457762995.3,286046992.5,P
1457763015.1,286046994.7,Y
1457763035.9,286046999.3,P
1457763055.7,286047001.1,N
1457763075.5,286046999.6,N
1457763095.4,286046997.5,N
1457763115.2,286046995.5,N
1457763135.0,286046999.6,N
1457763135.9,286046999.6,N
1457763155.7,286046999.3,N
1457763175.6,286047001.1,N
1457763195.4,286046999.9,N
1457763215.2,286047002.5,N
1457763235.1,286047000.6,N
1457763236.0,286047000.6,N
1457763255.8,286047002.9,N
1457763275.6,286047006.4,N
1457763295.5,286047008.3,Y
1457763315.3,286047011.5,P
1457763335.1,286047016.8,N
1457763355.9,286047018.2,N
1457763375.8,286047023.1,Y
1457763395.6,286047011.8,P
1457763415.5,286047010.9,P
1457763435.3,286047012.6,P
1457763455.1,286047018.8,Y
1457763475.9,286047008.8,P
1457763495.7,286047008.9,P
1457763515.5,286047008.9,P
1457763535.4,286047009.3,Y
1457763555.2,286047000.3,P
1457763575.0,286046998.3,N
1457763575.9,286046998.3,N
1457763595.8,286046997.9,N
1457763615.6,286046997.4,N
1457763635.4,286046998.6,N
1457763655.3,286046997.1,N
1457763675.1,286046998.0,N
1457763676.0,286046998.0,N
1457763695.8,286046996.1,N
1457763715.7,286046999.4,N
1457763735.5,286047000.7,N
1457763755.3,286047002.8,N
1457763775.1,286047005.9,N
1457763795.9,286047004.9,N
1457763815.7,286047009.1,N
1457763835.5,286047008.8,N
1457763855.4,286047006.1,N
1457763875.2,286047009.3,N
1457763895.0,286047014.0,Y
1457763896.0,286047014.0,P
1457763915.8,286047009.8,N
1457763935.6,286047008.9,N
1457763955.4,286047005.8,N
1457763975.3,286047003.7,N
1457763995.1,286047001.9,N
1457764015.8,286047003.5,N
1457764035.7,286047004.8,N
1457764055.5,286047004.3,N
1457764075.3,286047003.2,N
1457764095.2,286047003.2,N
1457764115.9,286047003.4,N
1457764135.7,286047001.8,N
1457764155.6,286047000.9,N
1457764175.4,286046998.9,N
1457764195.2,286046997.4,N
1457764215.0,286047000.5,N
1457764215.9,286047000.5,N
1457764235.8,286047004.1,N
1457764255.6,286047002.3,N
1457764275.4,286046998.2,N
1457764295.3,286046999.9,N
1457764315.1,286046999.6,N
1457764335.8,286046994.2,N
1457764355.7,286046993.5,N
1457764375.5,286046990.4,N
1457764395.3,286046994.4,N
1457764415.2,286046991.7,N
1457764435.9,286046990.1,N
1457764455.7,286046991.2,N
1457764475.5,286046990.4,N
1457764495.4,286046991.0,N
1457764515.2,286046986.3,N
1457764535.0,286046985.7,N
1457764535.9,286046985.7,N
1457764555.8,286046980.9,Y
1457764575.6,286046981.4,P
1457764595.4,286046979.7,N
1457764615.3,286046979.1,N
1457764635.1,286046977.3,Y
1457764655.8,286046996.2,P
1457764675.7,286046993.6,N
1457764695.5,286046991.7,N
1457764715.3,286046993.7,N
1457764735.2,286046996.2,N
1457764755.9,286046995.4,N
1457764775.7,286046996.4,N
1457764795.6,286046992.1,N
1457764815.4,286046992.5,N
1457764835.2,286046994.2,N
1457764855.1,286046992.4,N
1457764856.0,286046992.4,N
1457764875.8,286046989.2,Y
1457764895.6,286047002.6,P
1457764915.5,286047002.8,N
1457764935.3,286047001.8,N
1457764955.1,286047003.8,N
1457764975.9,286047005.3,N
1457764995.7,286047006.9,N
1457765015.5,286047005.4,N
1457765035.3,286047003.7,N
1457765055.2,286047001.3,N
1457765075.0,286047004.9,N
1457765075.9,286047004.9,N
1457765095.7,286047006.8,N
1457765115.6,286047003.3,N
1457765135.4,286047004.2,N
1457765155.2,286047004.2,N
1457765175.1,286047001.9,N
1457765176.0,286047001.9,N
1457765195.8,286047001.5,N
1457765215.6,286047003.5,N
1457765235.5,286047001.5,N
1457765255.3,286047001.8,N
1457765275.1,286047003.8,N
1457765295.9,286047003.1,N
1457765315.7,286047001.5,N
1457765335.5,286047005.6,N
1457765355.4,286047006.9,N
1457765375.2,286047005.9,N
1457765395.0,286047000.4,N
1457765395.9,286047000.4,N
1457765415.7,286047001.6,N
1457765435.6,286046998.6,N
1457765455.4,286046998.7,N
1457765475.2,286046998.8,N
1457765495.1,286047002.1,N
1457765496.0,286047002.1,N
1457765515.8,286047002.6,N
1457765535.6,286047002.6,N
1457765555.5,286047001.5,N
1457765575.3,286047003.6,N
1457765595.1,286047003.6,N
1457765615.9,286047001.5,N
1457765635.7,286047003.8,N
1457765655.5,286047002.1,N
1457765675.4,286046998.4,N
1457765695.2,286047000.8,N
1457765715.0,286047001.4,N
1457765715.9,286047001.4,N
1457765735.8,286047001.5,N
1457765755.6,286046998.6,N
1457765775.4,286046997.0,N
1457765795.2,286046996.9,N
1457765815.1,286047000.0,N
1457765816.0,286047000.0,N
1457765835.8,286046999.6,N
1457765855.6,286046997.8,N
1457765875.5,286047001.2,N
1457765895.3,286047002.5,N
1457765915.1,286047000.9,N
1457765935.9,286046998.4,N
1457765955.7,286046998.8,N
1457765975.5,286047000.5,N
1457765995.4,286047001.0,N
